Location: Roanoke
(37.2710°N, 79.9420°W)
Time: 01:52:53
(UTC-05:00)

Daily predictions for brighter satellites

Satellite Brightness Start Highest point End
(mag) Time Altitude Azimuth Time Altitude Azimuth Time Altitude Azimuth
Cosmos 2297 Rocket 4.3 04:05:03 21° ENE 04:05:03 21° ENE 04:07:33 10° NE
Cosmos 2227 Rocket 4.3 04:18:46 20° NE 04:18:46 20° NE 04:20:28 10° NE
Cosmos 2333 Rocket 3.2 04:50:14 39° SSE 04:50:14 39° SSE 04:53:44 10° SSE
Thor Agena Rocket 4.4 04:52:26 10° SSE 04:55:56 44° SSE 04:55:56 44° SSE
NOSS 0 Rocket 4.2 05:04:11 55° S 05:04:11 55° S 05:08:59 10° SSE
Cosmos 2219 Rocket 3.7 05:11:11 22° S 05:11:11 22° S 05:13:13 10° S
Cosmos 371 Rocket 4.4 05:21:05 32° S 05:21:05 32° S 05:23:44 10° S
COSMO-SKYMED 1 3.4 05:15:07 10° SSE 05:19:18 49° ENE 05:21:11 29° NNE
Cosmos 968 Rocket 4.0 05:20:56 10° S 05:26:05 59° ESE 05:31:16 10° NNE
NOAA 6 3.9 05:22:45 10° NNE 05:27:57 85° WNW 05:33:09 10° SSW
Cosmos 1816 Rocket 4.4 05:25:22 10° N 05:31:43 89° W 05:37:58 10° S
CZ-3 R/B 4.4 05:30:34 24° WSW 05:35:34 26° SW 05:43:44 10° S
Cosmos 2237 Rocket 2.4 05:36:10 48° WSW 05:36:11 48° WSW 05:41:37 10° S
USA 229 DEB 3.8 05:33:34 26° NNW 05:38:00 86° ENE 05:45:16 10° SSE
USA 229 3.8 05:33:38 26° NNW 05:38:05 86° ENE 05:45:21 10° SSE
Cosmos 1500 Rocket 3.9 05:34:37 14° N 05:38:22 65° E 05:42:47 10° SSE
SL-16 R/B 2.3 05:35:44 21° NNW 05:39:36 75° ENE 05:45:15 10° SSE
Tsikada Rocket 4.0 05:35:08 10° NNW 05:41:25 61° W 05:47:35 10° S
Cosmos 2346 Rocket 4.5 05:36:44 10° N 05:42:53 79° E 05:48:57 10° S
GPS 2-05 Rocket1 3.8 05:44:52 35° S 05:45:06 36° SSE 05:48:11 10° E
Cosmos 2297 Rocket 2.7 05:46:57 38° NW 05:46:57 38° NW 05:51:57 10° N
SKYMED 3 4.4 05:44:58 10° S 05:49:18 73° WSW 05:51:35 27° NNW
Cosmos 220 Rocket 3.9 05:47:19 10° SSW 05:51:43 68° WNW 05:56:07 10° NNE
Cosmos 783 Rocket 4.5 05:51:32 28° NW 05:54:14 60° WSW 05:59:22 10° S
Cosmos 1340 Rocket 4.2 05:51:04 10° N 05:54:45 38° ENE 05:58:27 10° SSE
Aureole 2 Rocket 3.0 05:57:16 40° NW 05:58:26 54° WSW 06:02:28 10° S
Cosmos 2227 Rocket 3.5 06:00:39 21° NW 06:00:39 21° NW 06:03:46 10° N
Cosmos 540 Rocket 3.9 05:58:35 34° WNW 05:59:42 39° WSW 06:04:24 10° S
Meteor 1-16 Rocket 4.0 05:55:07 10° S 06:00:36 87° W 06:05:59 10° N
Cosmos 1271 Rocket 2.8 05:58:17 10° S 06:02:07 74° E 06:05:55 10° NNE
IDEFIX/ARIANE 42P 4.0 06:00:52 10° NNE 06:05:50 41° E 06:10:47 10° SSE
OAO 2 Rocket 3.4 06:04:01 29° WSW 06:06:28 68° S 06:11:22 10° ESE
ISS -2.2 06:06:00 26° NNW 06:07:15 38° NE 06:10:19 10° ESE
SKYMED 2 3.9 06:03:15 10° S 06:07:23 44° W 06:09:51 22° NW
Meteor 1-28 Rocket 3.1 06:03:43 10° S 06:07:28 69° W 06:10:38 14° NNW
SL-14 R/B 3.3 06:03:43 10° N 06:07:48 90° W 06:11:51 10° S
Cosmos 304 Rocket 3.7 06:05:04 16° NNW 06:08:47 66° WSW 06:13:30 10° S
Meteor 1-4 Rocket 3.0 06:07:52 10° SSW 06:11:20 38° WNW 06:14:52 10° N
YAOGAN 1 4.4 06:12:14 10° NNE 06:16:13 35° E 06:20:10 10° SSE
Meteor 2-1 Rocket 4.3 06:13:10 10° S 06:18:44 86° E 06:24:28 10° N
Meteor 2-12 Rocket 4.5 06:13:01 10° S 06:19:09 87° E 06:25:20 10° N
Cosmos 1072 Rocket 4.4 06:13:20 10° S 06:19:33 83° W 06:25:43 10° N
USA 234 3.8 06:14:25 10° ESE 06:20:46 54° NE 06:27:08 10° NW
CZ-4 R/B 2.0 06:17:06 10° NNE 06:21:07 60° E 06:25:10 10° S
Cosmos 1538 Rocket 4.0 06:17:11 10° NNW 06:22:34 77° WSW 06:27:54 10° S
Aureole 1 4.1 06:22:54 10° SSW 06:25:53 85° WNW 06:29:14 10° NNE
ERBS 3.6 06:23:54 13° NNW 06:26:42 36° NE 06:29:53 10° ESE
Cosmos 1626 3.4 06:24:43 10° N 06:28:19 43° E 06:31:53 10° SSE
Cosmos 2333 Rocket 4.1 06:32:19 10° WSW 06:32:19 10° WSW 06:32:25 10° WSW
PSLV R/B 3.2 06:29:54 16° WSW 06:32:32 88° NNW 06:35:55 10° ENE
NOSS 3-1 (C) 4.2 06:25:47 10° NNW 06:33:32 86° ENE 06:41:58 10° SSE
Ariane Rocket 3.4 06:30:10 10° N 06:34:54 40° WNW 06:39:38 10° SW
Cosmos 2221 2.5 06:30:48 10° SSW 06:35:06 60° W 06:39:23 10° N
Coronas F rocket 3.8 06:35:07 10° NNE 06:37:01 20° ENE 06:38:53 10° SE
TELKOM 3 3.9 06:36:34 19° W 06:37:56 30° NW 06:39:59 10° NNE
Cosmos 1680 Rocket 4.4 06:34:13 10° N 06:39:22 50° ENE 06:44:31 10° SE
CSL-04 Debris 4.3 06:34:57 10° N 06:40:18 55° WNW 06:45:35 10° SSW
Cosmos 1603 3.7 06:37:45 10° NNW 06:43:25 89° WSW 06:49:04 10° SSE
Cosmos 389 Rocket 3.3 06:44:16 10° S 06:47:52 57° E 06:51:29 10° NNE
Cosmos 1908 3.7 06:44:58 10° S 06:48:44 64° E 06:52:32 10° NNE
Cosmos 2263 Rocket 3.3 06:44:19 10° S 06:49:45 49° ESE 06:55:13 10° NNE
AQUARIUS 4.1 06:49:43 10° N 06:54:13 71° WNW 06:58:40 10° SSW
Cosmos 2058 3.6 06:50:50 10° NNW 06:54:31 32° W 06:58:12 10° SSW
COSMO-SKYMED 1 4.4 06:53:50 10° WSW 06:55:42 13° W 06:57:35 10° WNW
Cosmos 2228 Rocket 3.8 06:51:47 10° S 06:56:10 61° E 07:00:31 10° NNE
MONITOR-E 4.4 06:58:22 10° NNE 07:01:32 80° E 07:04:41 10° S
PAYLOAD A 4.5 06:57:49 10° N 07:02:24 35° WNW 07:06:48 10° SW
Cosmos 292 Rocket 3.8 06:59:32 10° NNW 07:04:20 81° WSW 07:09:08 10° SSE
CZ-2C R/B 2.5 07:00:18 10° N 07:04:43 48° WNW 07:09:05 10° SSW
